GLOBALSTAR M093

Last updated on Mon Sep 21 2026 00:03:12 GMT+0000 (Coordinated Universal Time)

1 39073U 13005B 26263.39457824 -.00000089 00000+0 81406-4 0 9992 2 39073 52.0111 306.9017 0000460 147.5562 212.5333 12.62267198628885
UTC large
Height (km)
Speed (km/s)
/
Latitude / Longitude
Inclination (degrees)
Orbital Period (minutes)
Azimuth
Elevation
Range (km)
Doppler Factor

Next 0 passes for location: London (51.5072 / 0.1276)

No passes found over London.
GLOBALSTAR M093